Location: Alpha Ridge Park
(39.3209°N, 76.9128°W)
Time: 00:39:29
(UTC-04:00)

Vanguard 2 Rocket - Pass Details

Date: 22 May 2019
Orbit: 554 x 3326 km, 32.9° (Epoch: 17 June)

Event Time Altitude Azimuth Distance (km) Brightness Sun altitude
Rises 13:11:59 0° 274° (W) 4,681 10.6 71.0°
Reaches altitude 10° 13:16:44 10° 258° (WSW) 3,147 9.9 70.9°
Maximum altitude 13:21:21 18° 219° (SW) 2,124 9.4 70.8°
Drops below altitude 10° 13:24:52 10° 177° (S) 2,282 9.4 70.6°
Sets 13:27:36 0° 156° (SSE) 2,971 9.8 70.5°
